Tracking 25709 objects as of 24-May-2022
HD Live streaming from Space Station
objects crossing your sky now

STARLINK-3308

Track STARLINK-3308 now!
10-day predictions
STARLINK-3308 is classified as:


NORAD ID: 50846
Int'l Code: 2022-001AV
Perigee: 545.2 km
Apogee: 548.6 km
Inclination: 53.2 °
Period: 95.4 minutes
Semi major axis: 6917 km
RCS: Unknown
Launch date: January 6, 2022
Source: United States (US)
Launch site: AIR FORCE EASTERN TEST RANGE (AFETR)
aabbcc
Your satellite tracking list
Your tracking list is empty




NASA's NSSDC Master Catalog

Two Line Element Set (TLE):
1 50846U 22001AV  22143.91668981  .00013976  00000-0  89445-3 0  9997
2 50846  53.2172 280.0918 0002418  28.4331 319.0667 15.08840842  1305
Source of the keplerian elements: AFSPC